When you browse on this site, cookies collect data to enhance your experience and personalize the content and advertising you see.
Visit our Privacy Policy to learn more. By continuing to use the site, you agree to this use of cookies and data.
  • In Hungary
  • List of Countries
  • For 7 days
  • Water Temperature
  • Satellite Maps
  • Weather Map
  • News
  • Weather Widgets
  • user-avatar
    Login

    Hourly Weather Zavitinsk

    Today, 20 January, Sunday

    Time Temperature Precipitation Wind Pressure Humidity
    00:00 -27°C° 0 mm 2 mps 739 mmHg 97%
    01:00 -27°C° 0 mm 2 mps 739 mmHg 97%
    02:00 -27°C° 0 mm 2 mps 739 mmHg 97%
    03:00 -27°C° 0 mm 2 mps 738 mmHg 97%
    04:00 -27°C° 0 mm 2 mps 738 mmHg 97%
    05:00 -27°C° 0 mm 2 mps 738 mmHg 98%
    06:00 -27°C° 0 mm 2 mps 738 mmHg 98%
    07:00 -27°C° 0 mm 2 mps 738 mmHg 98%
    08:00 -27°C° 0 mm 2 mps 738 mmHg 97%
    09:00 -26°C° 0 mm 2 mps 737 mmHg 97%
    10:00 -26°C° 0 mm 2 mps 737 mmHg 96%
    11:00 -25°C° 0 mm 2 mps 737 mmHg 94%
    12:00 -24°C° 0 mm 2 mps 737 mmHg 93%
    13:00 -25°C° 0 mm 3 mps 737 mmHg 92%
    14:00 -25°C° 0 mm 3 mps 737 mmHg 92%
    15:00 -25°C° 0 mm 3 mps 737 mmHg 92%
    16:00 -26°C° 0 mm 3 mps 737 mmHg 94%
    17:00 -26°C° 0 mm 2 mps 737 mmHg 95%
    18:00 -28°C° 0 mm 2 mps 737 mmHg 97%
    19:00 -28°C° 0 mm 2 mps 737 mmHg 97%
    20:00 -29°C° 0 mm 2 mps 737 mmHg 98%
    21:00 -29°C° 0 mm 2 mps 737 mmHg 98%
    22:00 -29°C° 0 mm 2 mps 737 mmHg 98%
    23:00 -29°C° 0 mm 2 mps 737 mmHg 98%

    Tomorrow, 21 January, Monday

    Time Temperature Precipitation Wind Pressure Humidity
    00:00 -29°C° 0 mm 2 mps 736 mmHg 98%
    01:00 -30°C° 0 mm 2 mps 736 mmHg 98%
    02:00 -30°C° 0 mm 2 mps 736 mmHg 97%
    03:00 -30°C° 0 mm 2 mps 736 mmHg 97%
    04:00 -30°C° 0 mm 2 mps 736 mmHg 96%
    05:00 -28°C° 0 mm 1 mps 736 mmHg 96%
    06:00 -29°C° 0 mm 1 mps 736 mmHg 95%
    07:00 -29°C° 0 mm 1 mps 736 mmHg 95%
    08:00 -29°C° 0 mm 1 mps 737 mmHg 94%
    09:00 -31°C° 0 mm 2 mps 737 mmHg 93%
    10:00 -29°C° 0 mm 2 mps 737 mmHg 91%
    11:00 -27°C° 0 mm 2 mps 737 mmHg 90%
    12:00 -25°C° 0 mm 2 mps 736 mmHg 88%
    13:00 -24°C° 0 mm 2 mps 736 mmHg 89%
    14:00 -24°C° 0 mm 2 mps 736 mmHg 90%
    15:00 -23°C° 0 mm 2 mps 735 mmHg 92%
    16:00 -25°C° 0 mm 2 mps 736 mmHg 93%
    17:00 -23°C° 0 mm 1 mps 736 mmHg 95%
    18:00 -25°C° 0 mm 1 mps 736 mmHg 97%
    19:00 -25°C° 0 mm 1 mps 736 mmHg 97%
    20:00 -27°C° 0 mm 1 mps 735 mmHg 98%
    21:00 -26°C° 0 mm 0 mps 735 mmHg 98%
    22:00 -26°C° 0 mm 0 mps 735 mmHg 98%
    23:00 -26°C° 0 mm 0 mps 735 mmHg 98%

    Day after tomorrow, 22 January, Tuesday

    Time Temperature Precipitation Wind Pressure Humidity
    00:00 -26°C° 0 mm 0 mps 735 mmHg 98%
    01:00 -26°C° 0 mm 0 mps 735 mmHg 98%
    02:00 -27°C° 0 mm 1 mps 735 mmHg 98%
    03:00 -27°C° 0 mm 1 mps 735 mmHg 98%
    04:00 -27°C° 0 mm 1 mps 735 mmHg 98%
    05:00 -27°C° 0 mm 1 mps 734 mmHg 99%
    06:00 -27°C° 0 mm 1 mps 734 mmHg 99%
    07:00 -27°C° 0 mm 1 mps 734 mmHg 99%
    08:00 -27°C° 0 mm 1 mps 734 mmHg 98%
    09:00 -25°C° 0 mm 1 mps 734 mmHg 98%
    10:00 -24°C° 0 mm 1 mps 734 mmHg 96%
    11:00 -22°C° 0 mm 1 mps 734 mmHg 94%
    12:00 -20°C° 0 mm 1 mps 734 mmHg 91%
    13:00 -19°C° 0 mm 1 mps 734 mmHg 91%
    14:00 -21°C° 0 mm 2 mps 734 mmHg 91%
    15:00 -20°C° 0 mm 2 mps 734 mmHg 91%
    16:00 -23°C° 0 mm 2 mps 735 mmHg 93%
    17:00 -25°C° 0 mm 2 mps 735 mmHg 94%
    18:00 -29°C° 0 mm 3 mps 736 mmHg 96%
    19:00 -30°C° 0 mm 3 mps 736 mmHg 96%
    20:00 -28°C° 0 mm 2 mps 736 mmHg 96%
    21:00 -29°C° 0 mm 2 mps 736 mmHg 96%
    22:00 -29°C° 0 mm 2 mps 737 mmHg 96%
    23:00 -30°C° 0 mm 2 mps 737 mmHg 96%

    23 January, Wednesday

    Time Temperature Precipitation Wind Pressure Humidity
    00:00 -30°C° 0 mm 2 mps 737 mmHg 97%
    01:00 -30°C° 0 mm 2 mps 737 mmHg 97%
    02:00 -31°C° 0 mm 2 mps 737 mmHg 97%
    03:00 -31°C° 0 mm 2 mps 738 mmHg 98%
    04:00 -31°C° 0 mm 2 mps 738 mmHg 98%
    05:00 -31°C° 0 mm 2 mps 738 mmHg 98%
    06:00 -32°C° 0 mm 2 mps 739 mmHg 98%
    07:00 -32°C° 0 mm 2 mps 739 mmHg 98%
    08:00 -32°C° 0 mm 2 mps 740 mmHg 97%
    09:00 -32°C° 0 mm 2 mps 741 mmHg 96%
    10:00 -30°C° 0 mm 2 mps 741 mmHg 94%
    11:00 -28°C° 0 mm 2 mps 741 mmHg 91%
    12:00 -26°C° 0 mm 2 mps 742 mmHg 89%
    13:00 -25°C° 0 mm 2 mps 742 mmHg 89%
    14:00 -24°C° 0 mm 2 mps 743 mmHg 89%
    15:00 -24°C° 0 mm 2 mps 743 mmHg 89%
    16:00 -25°C° 0 mm 2 mps 744 mmHg 91%
    17:00 -27°C° 0 mm 2 mps 744 mmHg 93%
    18:00 -25°C° 0 mm 1 mps 745 mmHg 95%
    19:00 -25°C° 0 mm 1 mps 745 mmHg 95%
    20:00 -27°C° 0 mm 1 mps 746 mmHg 95%
    21:00 -27°C° 0 mm 1 mps 746 mmHg 95%
    22:00 -27°C° 0 mm 1 mps 746 mmHg 95%
    23:00 -27°C° 0 mm 1 mps 746 mmHg 96%

    24 January, Thursday

    Time Temperature Precipitation Wind Pressure Humidity
    00:00 -27°C° 0 mm 0 mps 747 mmHg 96%
    01:00 -27°C° 0 mm 0 mps 747 mmHg 96%
    02:00 -27°C° 0 mm 0 mps 747 mmHg 97%
    03:00 -27°C° 0 mm 0 mps 747 mmHg 98%
    04:00 -27°C° 0 mm 0 mps 747 mmHg 98%
    05:00 -27°C° 0 mm 0 mps 747 mmHg 98%
    06:00 -27°C° 0 mm 0 mps 748 mmHg 98%
    07:00 -26°C° 0 mm 0 mps 748 mmHg 98%
    08:00 -26°C° 0 mm 0 mps 748 mmHg 98%
    09:00 -26°C° 0 mm 0 mps 748 mmHg 98%
    10:00 -24°C° 0 mm 0 mps 748 mmHg 95%
    11:00 -22°C° 0 mm 0 mps 748 mmHg 93%
    12:00 -20°C° 0 mm 1 mps 748 mmHg 91%
    13:00 -19°C° 0 mm 1 mps 748 mmHg 91%
    14:00 -19°C° 0 mm 1 mps 748 mmHg 90%
    15:00 -18°C° 0 mm 1 mps 748 mmHg 90%
    16:00 -19°C° 0 mm 1 mps 748 mmHg 92%
    17:00 -21°C° 0 mm 1 mps 748 mmHg 94%
    18:00 -22°C° 0 mm 1 mps 748 mmHg 97%
    19:00 -22°C° 0 mm 1 mps 748 mmHg 97%
    20:00 -23°C° 0 mm 1 mps 748 mmHg 97%
    21:00 -23°C° 0 mm 1 mps 749 mmHg 97%
    22:00 -23°C° 0 mm 1 mps 749 mmHg 97%
    23:00 -27°C° 0 mm 2 mps 749 mmHg 97%

    25 January, Friday

    Time Temperature Precipitation Wind Pressure Humidity
    00:00 -27°C° 0 mm 2 mps 749 mmHg 97%
    01:00 -27°C° 0 mm 2 mps 748 mmHg 98%
    02:00 -27°C° 0 mm 2 mps 748 mmHg 98%
    03:00 -28°C° 0 mm 2 mps 748 mmHg 98%
    04:00 -28°C° 0 mm 2 mps 748 mmHg 98%
    05:00 -28°C° 0 mm 2 mps 748 mmHg 98%
    06:00 -28°C° 0 mm 2 mps 748 mmHg 98%
    07:00 -27°C° 0 mm 2 mps 748 mmHg 98%
    08:00 -27°C° 0 mm 2 mps 749 mmHg 98%
    09:00 -27°C° 0 mm 2 mps 749 mmHg 98%
    10:00 -25°C° 0 mm 2 mps 749 mmHg 96%
    11:00 -24°C° 0 mm 3 mps 748 mmHg 95%
    12:00 -22°C° 0 mm 3 mps 748 mmHg 93%
    13:00 -22°C° 0 mm 3 mps 748 mmHg 93%
    14:00 -21°C° 0 mm 3 mps 748 mmHg 92%
    15:00 -21°C° 0 mm 3 mps 747 mmHg 91%
    16:00 -22°C° 0 mm 3 mps 748 mmHg 93%
    17:00 -24°C° 0 mm 3 mps 748 mmHg 95%
    18:00 -25°C° 0 mm 3 mps 748 mmHg 96%
    19:00 -25°C° 0 mm 3 mps 748 mmHg 96%
    20:00 -25°C° 0 mm 2 mps 748 mmHg 96%
    21:00 -25°C° 0 mm 2 mps 748 mmHg 96%
    22:00 -25°C° 0 mm 2 mps 748 mmHg 96%
    23:00 -25°C° 0 mm 2 mps 747 mmHg 96%
    Show more